Previsão horária em Al Jubayl

Hoje, 20 Janeiro, Quarta-feira

Tempo Temperatura Precipitação Vento Pressão Humidade
00:00 +17°C° 0 mm 3 m/s 763 mmHg 54%
01:00 +17°C° 0 mm 3 m/s 763 mmHg 54%
02:00 +17°C° 0 mm 3 m/s 763 mmHg 54%
03:00 +16°C° 0 mm 3 m/s 762 mmHg 53%
04:00 +16°C° 0 mm 3 m/s 763 mmHg 55%
05:00 +16°C° 0 mm 3 m/s 763 mmHg 56%
06:00 +16°C° 0 mm 2 m/s 763 mmHg 57%
07:00 +17°C° 0 mm 2 m/s 763 mmHg 53%
08:00 +19°C° 0 mm 2 m/s 763 mmHg 48%
09:00 +21°C° 0 mm 2 m/s 763 mmHg 44%
10:00 +23°C° 0 mm 2 m/s 763 mmHg 40%
11:00 +24°C° 0 mm 2 m/s 762 mmHg 37%
12:00 +25°C° 0 mm 2 m/s 762 mmHg 33%
13:00 +25°C° 0 mm 2 m/s 762 mmHg 31%
14:00 +26°C° 0 mm 3 m/s 761 mmHg 30%
15:00 +26°C° 0 mm 4 m/s 760 mmHg 30%
16:00 +25°C° 0 mm 4 m/s 760 mmHg 36%
17:00 +22°C° 0 mm 5 m/s 760 mmHg 42%
18:00 +21°C° 0 mm 6 m/s 761 mmHg 48%
19:00 +21°C° 0 mm 6 m/s 761 mmHg 48%
20:00 +21°C° 0 mm 7 m/s 760 mmHg 47%
21:00 +21°C° 0 mm 8 m/s 760 mmHg 47%
22:00 +20°C° 0 mm 7 m/s 761 mmHg 47%
23:00 +20°C° 0 mm 7 m/s 761 mmHg 48%

Amanhã, 21 Janeiro, Quinta-feira

Tempo Temperatura Precipitação Vento Pressão Humidade
00:00 +19°C° 0 mm 6 m/s 761 mmHg 48%
01:00 +18°C° 0 mm 8 m/s 762 mmHg 46%
02:00 +18°C° 0 mm 11 m/s 762 mmHg 43%
03:00 +18°C° 0 mm 13 m/s 763 mmHg 40%
04:00 +18°C° 0 mm 12 m/s 763 mmHg 44%
05:00 +17°C° 0 mm 12 m/s 764 mmHg 47%
06:00 +17°C° 0 mm 11 m/s 765 mmHg 51%
07:00 +17°C° 0 mm 11 m/s 765 mmHg 49%
08:00 +17°C° 0 mm 11 m/s 766 mmHg 47%
09:00 +17°C° 0 mm 11 m/s 766 mmHg 45%
10:00 +18°C° 0 mm 11 m/s 767 mmHg 43%
11:00 +18°C° 0 mm 11 m/s 767 mmHg 41%
12:00 +18°C° 0 mm 10 m/s 767 mmHg 39%
13:00 +18°C° 0 mm 11 m/s 767 mmHg 39%
14:00 +18°C° 0 mm 11 m/s 766 mmHg 39%
15:00 +17°C° 0 mm 11 m/s 766 mmHg 39%
16:00 +17°C° 0 mm 11 m/s 766 mmHg 41%
17:00 +16°C° 0 mm 11 m/s 767 mmHg 44%
18:00 +14°C° 0 mm 10 m/s 767 mmHg 47%
19:00 +14°C° 0 mm 10 m/s 767 mmHg 47%
20:00 +14°C° 0 mm 10 m/s 767 mmHg 46%
21:00 +13°C° 0 mm 10 m/s 767 mmHg 46%
22:00 +13°C° 0 mm 10 m/s 767 mmHg 45%
23:00 +12°C° 0 mm 10 m/s 768 mmHg 44%

Depois de amanhã, 22 Janeiro, Sexta-feira

Tempo Temperatura Precipitação Vento Pressão Humidade
00:00 +11°C° 0 mm 10 m/s 768 mmHg 43%
01:00 +11°C° 0 mm 11 m/s 767 mmHg 42%
02:00 +9°C° 0 mm 11 m/s 767 mmHg 41%
03:00 +9°C° 0 mm 11 m/s 767 mmHg 40%
04:00 +8°C° 0 mm 11 m/s 767 mmHg 41%
05:00 +8°C° 0 mm 10 m/s 767 mmHg 41%
06:00 +8°C° 0 mm 10 m/s 767 mmHg 42%
07:00 +8°C° 0 mm 10 m/s 768 mmHg 39%
08:00 +9°C° 0 mm 10 m/s 768 mmHg 37%
09:00 +11°C° 0 mm 10 m/s 768 mmHg 35%
10:00 +12°C° 0 mm 10 m/s 768 mmHg 32%
11:00 +13°C° 0 mm 10 m/s 767 mmHg 30%
12:00 +13°C° 0 mm 10 m/s 767 mmHg 27%
13:00 +14°C° 0 mm 10 m/s 767 mmHg 29%
14:00 +14°C° 0 mm 10 m/s 766 mmHg 31%
15:00 +14°C° 0 mm 10 m/s 766 mmHg 32%
16:00 +13°C° 0 mm 9 m/s 766 mmHg 36%
17:00 +13°C° 0 mm 9 m/s 766 mmHg 40%
18:00 +12°C° 0 mm 8 m/s 766 mmHg 44%
19:00 +12°C° 0 mm 8 m/s 767 mmHg 44%
20:00 +12°C° 0 mm 8 m/s 767 mmHg 44%
21:00 +12°C° 0 mm 7 m/s 767 mmHg 44%
22:00 +11°C° 0 mm 7 m/s 767 mmHg 41%
23:00 +11°C° 0 mm 7 m/s 766 mmHg 37%

23 Janeiro, Sábado

Tempo Temperatura Precipitação Vento Pressão Humidade
00:00 +10°C° 0 mm 7 m/s 766 mmHg 33%
01:00 +10°C° 0 mm 7 m/s 766 mmHg 34%
02:00 +9°C° 0 mm 7 m/s 766 mmHg 35%
03:00 +9°C° 0 mm 7 m/s 765 mmHg 37%
04:00 +9°C° 0 mm 7 m/s 766 mmHg 39%
05:00 +8°C° 0 mm 7 m/s 766 mmHg 41%
06:00 +8°C° 0 mm 7 m/s 766 mmHg 43%
07:00 +9°C° 0 mm 7 m/s 767 mmHg 43%
08:00 +10°C° 0 mm 6 m/s 767 mmHg 43%
09:00 +11°C° 0 mm 6 m/s 767 mmHg 43%
10:00 +14°C° 0 mm 6 m/s 767 mmHg 43%
11:00 +16°C° 0 mm 6 m/s 767 mmHg 42%
12:00 +17°C° 0 mm 6 m/s 766 mmHg 41%
13:00 +17°C° 0 mm 6 m/s 766 mmHg 41%
14:00 +19°C° 0 mm 5 m/s 766 mmHg 41%
15:00 +19°C° 0 mm 5 m/s 765 mmHg 42%
16:00 +17°C° 0 mm 5 m/s 765 mmHg 45%
17:00 +17°C° 0 mm 4 m/s 765 mmHg 49%
18:00 +15°C° 0 mm 4 m/s 766 mmHg 52%
19:00 +14°C° 0 mm 4 m/s 766 mmHg 53%
20:00 +14°C° 0 mm 3 m/s 766 mmHg 55%
21:00 +14°C° 0 mm 3 m/s 766 mmHg 56%
22:00 +13°C° 0 mm 3 m/s 766 mmHg 55%
23:00 +13°C° 0 mm 3 m/s 766 mmHg 53%

24 Janeiro, Domingo

Tempo Temperatura Precipitação Vento Pressão Humidade
00:00 +13°C° 0 mm 3 m/s 766 mmHg 52%
01:00 +12°C° 0 mm 4 m/s 766 mmHg 50%
02:00 +12°C° 0 mm 4 m/s 765 mmHg 49%
03:00 +12°C° 0 mm 4 m/s 765 mmHg 47%
04:00 +11°C° 0 mm 4 m/s 765 mmHg 45%
05:00 +11°C° 0 mm 4 m/s 766 mmHg 44%
06:00 +11°C° 0 mm 4 m/s 766 mmHg 43%
07:00 +12°C° 0 mm 4 m/s 766 mmHg 39%
08:00 +13°C° 0 mm 4 m/s 767 mmHg 36%
09:00 +15°C° 0 mm 4 m/s 767 mmHg 33%
10:00 +17°C° 0 mm 4 m/s 767 mmHg 34%
11:00 +18°C° 0 mm 4 m/s 766 mmHg 36%
12:00 +20°C° 0 mm 4 m/s 766 mmHg 37%
13:00 +20°C° 0 mm 5 m/s 765 mmHg 36%
14:00 +20°C° 0 mm 5 m/s 765 mmHg 36%
15:00 +20°C° 0 mm 5 m/s 765 mmHg 35%
16:00 +19°C° 0 mm 5 m/s 765 mmHg 40%
17:00 +17°C° 0 mm 5 m/s 765 mmHg 44%
18:00 +16°C° 0 mm 5 m/s 765 mmHg 48%
19:00 +16°C° 0 mm 5 m/s 765 mmHg 49%
20:00 +15°C° 0 mm 4 m/s 765 mmHg 49%
21:00 +15°C° 0 mm 4 m/s 766 mmHg 50%
22:00 +15°C° 0 mm 4 m/s 765 mmHg 49%
23:00 +14°C° 0 mm 4 m/s 765 mmHg 48%

25 Janeiro, Segunda-feira

Tempo Temperatura Precipitação Vento Pressão Humidade
00:00 +14°C° 0 mm 4 m/s 765 mmHg 47%
01:00 +14°C° 0 mm 4 m/s 765 mmHg 47%
02:00 +13°C° 0 mm 4 m/s 764 mmHg 46%
03:00 +13°C° 0 mm 4 m/s 764 mmHg 45%
04:00 +13°C° 0 mm 4 m/s 764 mmHg 43%
05:00 +13°C° 0 mm 5 m/s 765 mmHg 42%
06:00 +12°C° 0 mm 5 m/s 765 mmHg 40%
07:00 +14°C° 0 mm 5 m/s 765 mmHg 37%
08:00 +15°C° 0 mm 5 m/s 765 mmHg 35%
09:00 +16°C° 0 mm 5 m/s 766 mmHg 32%
10:00 +19°C° 0 mm 5 m/s 765 mmHg 32%
11:00 +20°C° 0 mm 5 m/s 765 mmHg 31%
12:00 +22°C° 0 mm 5 m/s 765 mmHg 31%
13:00 +22°C° 0 mm 6 m/s 765 mmHg 32%
14:00 +22°C° 0 mm 6 m/s 764 mmHg 33%
15:00 +22°C° 0 mm 6 m/s 764 mmHg 34%
16:00 +20°C° 0 mm 5 m/s 764 mmHg 40%
17:00 +19°C° 0 mm 5 m/s 764 mmHg 45%
18:00 +18°C° 0 mm 4 m/s 765 mmHg 51%
19:00 +18°C° 0 mm 4 m/s 765 mmHg 52%
20:00 +17°C° 0 mm 4 m/s 765 mmHg 52%
21:00 +17°C° 0 mm 4 m/s 765 mmHg 53%
22:00 +17°C° 0 mm 3 m/s 765 mmHg 53%
23:00 +16°C° 0 mm 3 m/s 765 mmHg 53%
Mostrar mais

Necessitamos do seu Consentimento

A Meteoprog e os seus Fornecedores de Serviços podem armazenar e aceder a dados pessoais como cookies, identificadores do dispositivo ou outras tecnologias semelhantes existentes no seu dispositivo e processar estes dados para personalizar conteúdos e anúncios, assim como funcionalidades nas redes sociais e análise de tráfego.

  • Armazenar e/ou aceder a informações no seu dispositivo

    Os cookies, identificadores do dispositivo ou outras informações podem ser armazenados ou acedidos no seu dispositivo, para os fins acima indicados.

  • Anúncios e conteúdos personalizados, medição de anúncios e conteúdos, dados sobre o público-alvo e desenvolvimento de produtos

    Os anúncios e os conteúdos podem ser personalizados com base num perfil. Podem ser adicionados dados adicionais para uma maior personalização dos anúncios e dos conteúdos. A eficácia dos anúncios e dos conteúdos pode ser medida. Podem ser obtidas informações sobre o público que visualizou os anúncios e os conteúdos. Estes dados podem ser usados para desenvolver ou melhorar sistemas, softwares ou a experiência do utilizador.

Ao clicar em "Eu concordo”, permitirá o uso de cookies, identificadores do dispositivo e web beacons mencionados ou outras tecnologias semelhantes. As configurações do navegador do seu dispositivo podem ser alteradas.

Para certos fins, podem ser invocados interesses legítimos ao invés de consentimento. Pode ler mais informação sobre este assunto na nossa Política de Privacidade e Cookies.